Weather in Pushkino

Russia / Republic of Crimea     45°12′05″N   34°58′35″E
temp.,
°C
wind,
m/s
gust,
m/s
humid.,
%
clouds,
%
prec.,
mm/h
press.,
hPa
HPBL,
m
26 february, fri
fri2600:00+4w1288100 0.0 103147
03:00+4wsw3890100 0.0 1030241
06:00+5wsw3892100 0.6 1029247
09:00+6wsw4989100 0.9 1029265
12:00+12w586947 0.0 1028739
15:00+13w796524 0.0 1026894
18:00+11w410730 0.0 1025412
21:00+8sw35800 0.0 1024111
27 february, sat
sat2700:00+7sw35780 0.0 102382
03:00+7wsw38770 0.0 1022193
06:00+6wsw38790 0.0 1020179
09:00+8wsw410720 0.0 1020406
12:00+13w711640 0.0 1019705
15:00+14w79630 0.0 1018866
18:00+10nw377921 0.1 1017426
21:00+7n258860 0.6 1018390
28 february, sun
sun2800:00+6n4693100 2.4 1018412
03:00+5nnw5788100 4.9 1019534
06:00+5nw3673100 0.2 1019594
09:00+5nw577899 0.3 1020801
12:00+6nw687392 0.3 1020993
15:00+6nnw576894 0.6 10211037
18:00+4nw588496 0.3 1022680
21:00+4nw477998 0.5 1023788
1 march, mon
mon100:00+3wnw467799 0.1 1024345
03:00+1w479388 0.1 1024215
06:000w359542 0.0 1025123
09:00+1nw349171 0.0 1026287
12:00+4nw2370100 0.1 1027834
15:00+4n3467100 0.2 1028838
18:00+3nne346890 0.1 1028698
21:00+1n228090 0.1 103064
2 march, tue
tue200:00+2nw228095 0.1 103240
03:00+1nw347897 0.1 103288
06:000nw348462 0.0 103286
09:00+1wnw458052 0.0 1033262
12:00+4wnw455977 0.0 10331066
15:00+6wnw575083 0.0 10321145
18:00+5wnw595845 0.0 1030713
21:00+3w7127652 0.0 1030470